Simultaneous Nadir Overpasses (SNOs) Predictions

Prediction of SNOs between FY3D and AQUA Satellite Orbit:

Table of predicted SNOs for the next 14.0 days since TLE Epoch: 8/15/2025
Index Date (FY3D) Time (FY3D) Lat,Lon (FY3D) SZA (FY3D ) Date (AQUA) Time (AQUA) Lat,Lon (AQUA) SZA (AQUA ) Distance(km) Time Diff (sec)
1 08/17/2025 23:18:32 79.52,-179.64 66.58 08/17/2025 23:19:01 79.52,-179.64 66.57 0.09 29
2 08/18/2025 00:09:10 -79.34, -10.71 113.65 08/18/2025 00:08:13 -79.33, -10.58 113.66 2.82 57
3 08/20/2025 08:49:14 79.54, 37.60 67.37 08/20/2025 08:49:46 79.53, 37.68 67.36 1.78 32
4 08/20/2025 09:39:49 -79.26,-152.65 112.98 08/20/2025 09:38:56 -79.26,-152.73 112.97 1.78 53
5 08/22/2025 18:19:56 79.53,-104.90 68.15 08/22/2025 18:20:31 79.52,-104.89 68.14 0.26 35
6 08/22/2025 19:10:35 -79.37, 63.78 112.04 08/22/2025 19:09:44 -79.36, 63.93 112.05 3.14 51
7 08/25/2025 03:50:40 79.58, 112.01 69.03 08/25/2025 03:51:17 79.57, 112.10 69.02 1.81 37
8 08/25/2025 04:41:15 -79.30, -78.20 111.32 08/25/2025 04:40:27 -79.30, -78.27 111.31 1.69 48
9 08/27/2025 13:21:21 79.54, -30.25 69.81 08/27/2025 13:22:00 79.54, -30.25 69.80 0.07 39



Historial Predications of SNOs between FY3D and AQUA
